Simultaneous Nadir Overpasses (SNOs) Predictions

Prediction of SNOs between LANDSAT-8 and METOP-A Satellite Orbit:

Table of predicted SNOs for the next 14.0 days since TLE Epoch: 5/12/2015
Index Date (LANDSAT-8) Time (LANDSAT-8) Lat,Lon (LANDSAT-8) SZA (LANDSAT-8 ) Date (METOP-A) Time (METOP-A) Lat,Lon (METOP-A) SZA (METOP-A ) Distance(km) Time Diff (sec)
1 05/14/2015 22:01:51 -81.12, 68.65 115.44 05/14/2015 22:01:41 -81.13, 68.83 115.42 3.30 10
2 05/14/2015 22:51:16 81.15,-123.29 64.62 05/14/2015 22:52:20 81.16,-123.19 64.66 1.79 64
3 05/17/2015 16:46:37 81.10, -32.88 63.87 05/17/2015 16:45:23 81.11, -32.74 63.86 2.49 74
4 05/17/2015 17:36:03 -81.12, 135.09 116.09 05/17/2015 17:36:03 -81.12, 134.91 116.11 3.08 0
5 05/17/2015 18:25:28 81.15, -56.87 63.96 05/17/2015 18:26:41 81.16, -56.74 64.02 2.37 73
6
